This is the latest recevied weather packets stored in our database for station/object HARMALA. If no packets are shown the sender has not sent any weather packets the latest 10 day(s).
| Time | Temp. | Humidity | Pressure | Rain* | Wind** | Luminosity | Snow |
|---|---|---|---|---|---|---|---|
| 1777520814 | 3.33° C | 90% | 1021 hPa | 0 mm | - | - | - |
| 1777519614 | 3.33° C | 89% | 1021.2 hPa | 0 mm | - | - | - |
| 1777518414 | 3.33° C | 89% | 1021.4 hPa | 0 mm | - | - | - |
| 1777517214 | 3.33° C | 89% | 1021.4 hPa | 0 mm | - | - | - |
| 1777516014 | 3.33° C | 89% | 1021.5 hPa | 0 mm | - | - | - |
| 1777514813 | 3.33° C | 88% | 1021.6 hPa | 0 mm | - | - | - |
| 1777513614 | 3.33° C | 87% | 1021.8 hPa | 0 mm | - | - | - |
| 1777512414 | 3.33° C | 85% | 1021.6 hPa | 0 mm | - | - | - |
| 1777511213 | 3.33° C | 83% | 1021.9 hPa | 0 mm | - | - | - |
| 1777510013 | 3.33° C | 84% | 1022 hPa | 0 mm | - | - | - |
| 1777508813 | 3.33° C | 82% | 1022.3 hPa | 0 mm | - | - | - |
| 1777507613 | 3.33° C | 79% | 1022.5 hPa | 0 mm | - | - | - |
| 1777506413 | 3.33° C | 78% | 1022.7 hPa | 0 mm | - | - | - |
| 1777505213 | 3.33° C | 75% | 1022.6 hPa | 0 mm | - | - | - |
| 1777504013 | 3.33° C | 74% | 1022.7 hPa | 0 mm | - | - | - |
| 1777502813 | 3.89° C | 72% | 1022.8 hPa | 0 mm | - | - | - |
| 1777501613 | 3.89° C | 69% | 1022.7 hPa | 0 mm | - | - | - |
| 1777500413 | 3.89° C | 65% | 1022.8 hPa | 0 mm | - | - | - |
| 1777499212 | 4.44° C | 62% | 1022.8 hPa | 0 mm | - | - | - |
| 1777498013 | 4.44° C | 56% | 1022.7 hPa | 0 mm | - | - | - |
| 1777496813 | 4.44° C | 57% | 1022.7 hPa | 0 mm | - | - | - |
| 1777495612 | 4.44° C | 53% | 1022.8 hPa | 0 mm | - | - | - |
| 1777494412 | 4.44° C | 51% | 1022.9 hPa | 0 mm | - | - | - |
| 1777493212 | 4.44° C | 50% | 1023 hPa | 0 mm | - | - | - |
| 1777492012 | 5° C | 49% | 1023.2 hPa | 0 mm | - | - | - |
* Rain latest hour (hover to see other rain measurements)
** Current wind speed in m/s (hover to see current wind gust speed)